QPF
0.00 0.00 0.00 0.00 0.00 0.00 0.00 0.00 0.00 0.00 0.00 0.00 0.00 0.01 0.01 0.01 0.02 0.02 0.02 0.01 0.01 0.01 0.01 0.01 0.02 0.03 0.03 0.03 0.03 0.04 0.06 0.08 0.11 0.14 0.13 0.15 0.19 0.25 0.30 0.26 0.23 0.21 0.23 0.23
0.00 0.00 0.00 0.00 0.00 0.00 0.00 0.00 0.00 0.00 0.00 0.00 0.00 0.01 0.01 0.02 0.03 0.02 0.02 0.02 0.01 0.01 0.02 0.02 0.03 0.02 0.03 0.03 0.05 0.05 0.07 0.09 0.10 0.12 0.13 0.13 0.14 0.20 0.26 0.34 0.33 0.27 0.26 0.27
0.00 0.00 0.00 0.00 0.00 0.00 0.00 0.00 0.00 0.00 0.00 0.00 0.00 0.01 0.01 0.02 0.03 0.02 0.03 0.03 0.02 0.02 0.02 0.04 0.04 0.03 0.03 0.04 0.06 0.06 0.06 0.08 0.10 0.10 0.10 0.10 0.11 0.13 0.17 0.22 0.30 0.40 0.33 0.29
0.00 0.00 0.00 0.00 0.00 0.00 0.00 0.00 0.00 0.00 0.00 0.00 0.00 0.00 0.01 0.02 0.02 0.02 0.02 0.02 0.02 0.02 0.03 0.03 0.04 0.04 0.05 0.07 0.07 0.07 0.08 0.10 0.12 0.16 0.17 0.16 0.14 0.13 0.14 0.19 0.24 0.35 0.37 0.31
0.00 0.00 0.00 0.00 0.00 0.00 0.00 0.00 0.00 0.00 0.00 0.00 0.00 0.00 0.01 0.01 0.02 0.02 0.02 0.02 0.03 0.03 0.03 0.04 0.04 0.04 0.04 0.04 0.06 0.11 0.11 0.10 0.12 0.14 0.17 0.19 0.16 0.15 0.15 0.16 0.18 0.18 0.21 0.22
0.00 0.00 0.00 0.00 0.00 0.00 0.00 0.00 0.00 0.00 0.00 0.00 0.00 0.00 0.00 0.01 0.02 0.02 0.02 0.02 0.03 0.04 0.04 0.03 0.03 0.03 0.04 0.03 0.03 0.05 0.10 0.13 0.13 0.14 0.15 0.16 0.18 0.16 0.16 0.15 0.14 0.14 0.14 0.15
0.00 0.00 0.00 0.00 0.00 0.00 0.00 0.00 0.00 0.00 0.00 0.00 0.00 0.00 0.00 0.00 0.02 0.02 0.02 0.03 0.03 0.03 0.03 0.02 0.01 0.01 0.02 0.03 0.03 0.04 0.08 0.13 0.16 0.14 0.14 0.17 0.18 0.17 0.14 0.13 0.13 0.13 0.13 0.14
0.00 0.00 0.00 0.00 0.00 0.00 0.00 0.00 0.00 0.00 0.00 0.00 0.00 0.00 0.00 0.01 0.01 0.02 0.02 0.02 0.02 0.02 0.02 0.01 0.01 0.01 0.01 0.02 0.03 0.04 0.08 0.09 0.09 0.08 0.08 0.10 0.11 0.11 0.09 0.08 0.10 0.11 0.12 0.12
0.00 0.00 0.00 0.00 0.00 0.00 0.00 0.00 0.00 0.00 0.00 0.00 0.00 0.00 0.02 0.01 0.01 0.01 0.01 0.01 0.01 0.02 0.02 0.02 0.01 0.01 0.01 0.02 0.05 0.05 0.04 0.04 0.05 0.06 0.06 0.06 0.06 0.08 0.10 0.10 0.08 0.07 0.07 0.06
0.00 0.00 0.00 0.00 0.00 0.00 0.00 0.00 0.00 0.00 0.00 0.00 0.00 0.00 0.03 0.01 0.01 0.01 0.02 0.02 0.01 0.01 0.01 0.02 0.01 0.02 0.02 0.02 0.04 0.05 0.05 0.05 0.05 0.05 0.04 0.04 0.04 0.05 0.06 0.06 0.05 0.04 0.04 0.03
0.00 0.00 0.00 0.00 0.00 0.00 0.00 0.00 0.00 0.00 0.01 0.01 0.00 0.00 0.00 0.00 0.00 0.00 0.01 0.01 0.01 0.01 0.01 0.01 0.01 0.01 0.01 0.01 0.02 0.03 0.04 0.05 0.06 0.06 0.05 0.04 0.05 0.05 0.04 0.04 0.03 0.02 0.02 0.02
0.01 0.01 0.00 0.00 0.00 0.00 0.00 0.01 0.01 0.01 0.01 0.01 0.00 0.01 0.01 0.00 0.01 0.01 0.01 0.01 0.01 0.01 0.01 0.01 0.01 0.01 0.01 0.01 0.01 0.02 0.02 0.02 0.04 0.05 0.05 0.04 0.05 0.04 0.04 0.03 0.03 0.03 0.03 0.03
0.01 0.01 0.00 0.00 0.00 0.00 0.01 0.01 0.01 0.01 0.01 0.00 0.00 0.00 0.00 0.00 0.01 0.01 0.01 0.01 0.01 0.01 0.01 0.01 0.02 0.02 0.01 0.01 0.01 0.01 0.01 0.02 0.03 0.03 0.03 0.04 0.05 0.05 0.04 0.03 0.03 0.03 0.03 0.04
0.01 0.01 0.00 0.00 0.00 0.01 0.00 0.01 0.01 0.01 0.01 0.00 0.00 0.00 0.00 0.01 0.01 0.01 0.01 0.01 0.01 0.01 0.01 0.01 0.01 0.01 0.01 0.01 0.01 0.01 0.01 0.03 0.04 0.04 0.04 0.05 0.05 0.05 0.05 0.05 0.04 0.03 0.03 0.04
0.01 0.01 0.01 0.01 0.01 0.01 0.00 0.01 0.01 0.01 0.01 0.01 0.00 0.00 0.01 0.01 0.01 0.01 0.01 0.01 0.01 0.01 0.01 0.01 0.01 0.01 0.01 0.02 0.02 0.02 0.03 0.03 0.04 0.05 0.04 0.04 0.04 0.05 0.05 0.06 0.05 0.04 0.04 0.03
0.01 0.01 0.01 0.01 0.00 0.00 0.00 0.00 0.01 0.01 0.01 0.01 0.01 0.01 0.01 0.01 0.01 0.01 0.01 0.01 0.01 0.01 0.02 0.02 0.01 0.02 0.02 0.02 0.02 0.03 0.03 0.03 0.03 0.03 0.04 0.04 0.03 0.04 0.04 0.05 0.05 0.05 0.04 0.02
0.00 0.01 0.01 0.00 0.00 0.00 0.01 0.01 0.01 0.01 0.01 0.01 0.01 0.01 0.01 0.01 0.01 0.00 0.00 0.01 0.01 0.01 0.01 0.01 0.02 0.02 0.02 0.02 0.03 0.03 0.02 0.02 0.03 0.03 0.04 0.03 0.03 0.03 0.03 0.04 0.05 0.05 0.04 0.02
0.00 0.01 0.01 0.01 0.00 0.01 0.01 0.01 0.01 0.01 0.01 0.01 0.00 0.00 0.00 0.00 0.00 0.00 0.00 0.00 0.01 0.01 0.02 0.02 0.02 0.01 0.02 0.02 0.03 0.04 0.03 0.03 0.03 0.03 0.03 0.03 0.03 0.03 0.04 0.05 0.05 0.05 0.04 0.02
0.01 0.01 0.01 0.01 0.01 0.01 0.01 0.02 0.02 0.02 0.01 0.01 0.00 0.00 0.00 0.00 0.00 0.00 0.01 0.01 0.02 0.02 0.02 0.02 0.02 0.02 0.02 0.02 0.02 0.03 0.03 0.03 0.03 0.03 0.03 0.03 0.03 0.03 0.04 0.06 0.06 0.05 0.04 0.03
0.01 0.01 0.01 0.01 0.01 0.02 0.01 0.01 0.01 0.01 0.01 0.01 0.00 0.00 0.00 0.00 0.00 0.00 0.00 0.01 0.01 0.02 0.02 0.02 0.02 0.02 0.02 0.02 0.02 0.02 0.02 0.03 0.03 0.03 0.03 0.03 0.03 0.04 0.05 0.05 0.04 0.04 0.03 0.02
0.01 0.02 0.01 0.01 0.01 0.01 0.01 0.01 0.01 0.01 0.00 0.00 0.00 0.00 0.00 0.00 0.01 0.01 0.00 0.00 0.01 0.01 0.01 0.01 0.01 0.01 0.02 0.02 0.02 0.02 0.02 0.03 0.03 0.03 0.03 0.03 0.03 0.03 0.04 0.03 0.02 0.02 0.02 0.02
0.02 0.02 0.01 0.01 0.01 0.01 0.01 0.02 0.02 0.02 0.01 0.01 0.01 0.01 0.01 0.01 0.01 0.01 0.00 0.00 0.00 0.01 0.01 0.01 0.01 0.01 0.02 0.02 0.02 0.02 0.02 0.03 0.03 0.03 0.03 0.03 0.03 0.03 0.03 0.03 0.03 0.02 0.02 0.02
0.03 0.03 0.02 0.02 0.01 0.01 0.01 0.02 0.02 0.02 0.01 0.01 0.01 0.01 0.01 0.01 0.01 0.01 0.01 0.00 0.00 0.00 0.01 0.01 0.01 0.01 0.01 0.01 0.01 0.01 0.02 0.02 0.03 0.02 0.02 0.03 0.03 0.03 0.03 0.03 0.02 0.01 0.01 0.01
0.03 0.02 0.02 0.02 0.02 0.01 0.01 0.01 0.01 0.01 0.01 0.01 0.01 0.01 0.01 0.00 0.01 0.01 0.02 0.01 0.01 0.00 0.01 0.01 0.01 0.01 0.01 0.01 0.01 0.01 0.02 0.02 0.02 0.02 0.02 0.02 0.02 0.03 0.03 0.02 0.01 0.00 0.01 0.00
0.02 0.02 0.03 0.03 0.02 0.02 0.01 0.01 0.02 0.01 0.01 0.01 0.01 0.00 0.01 0.01 0.01 0.01 0.01 0.01 0.01 0.00 0.01 0.01 0.01 0.01 0.01 0.01 0.01 0.01 0.01 0.01 0.01 0.01 0.02 0.02 0.01 0.01 0.01 0.00 0.00 0.00 0.00 0.00
0.02 0.02 0.02 0.01 0.01 0.01 0.01 0.01 0.01 0.01 0.01 0.01 0.00 0.00 0.00 0.01 0.01 0.02 0.01 0.00 0.00 0.00 0.00 0.00 0.01 0.01 0.01 0.01 0.01 0.01 0.01 0.01 0.01 0.01 0.01 0.01 0.01 0.00 0.00 0.00 0.00 0.00 0.00 0.00
MSLP
1012.64 1013.40 1013.97 1014.31 1014.43 1014.35 1014.14 1013.88 1013.62 1013.43 1013.33 1013.33 1013.43 1013.60 1013.81 1014.03 1014.23 1014.39 1014.49 1014.53 1014.50 1014.40 1014.26 1014.09 1013.92 1013.78 1013.69 1013.66 1013.69 1013.79 1013.92 1014.06 1014.16 1014.21 1014.19 1014.11 1013.98 1013.84 1013.73 1013.69 1013.75 1013.92 1014.20 1014.57
1012.83 1013.47 1013.93 1014.19 1014.27 1014.21 1014.08 1013.92 1013.80 1013.73 1013.74 1013.81 1013.94 1014.10 1014.29 1014.49 1014.67 1014.84 1014.98 1015.09 1015.14 1015.14 1015.08 1014.97 1014.81 1014.65 1014.49 1014.36 1014.29 1014.27 1014.29 1014.33 1014.36 1014.35 1014.28 1014.16 1014.00 1013.82 1013.69 1013.62 1013.67 1013.84 1014.12 1014.49
1012.82 1013.29 1013.62 1013.79 1013.86 1013.87 1013.85 1013.86 1013.91 1014.00 1014.13 1014.28 1014.43 1014.57 1014.70 1014.84 1014.97 1015.13 1015.29 1015.45 1015.60 1015.70 1015.74 1015.70 1015.58 1015.41 1015.21 1015.00 1014.82 1014.68 1014.59 1014.53 1014.48 1014.41 1014.31 1014.17 1014.00 1013.83 1013.70 1013.65 1013.71 1013.89 1014.19 1014.57
1012.66 1012.96 1013.14 1013.25 1013.34 1013.44 1013.58 1013.79 1014.05 1014.33 1014.59 1014.81 1014.96 1015.05 1015.10 1015.13 1015.18 1015.28 1015.43 1015.63 1015.86 1016.06 1016.21 1016.27 1016.22 1016.07 1015.84 1015.57 1015.30 1015.05 1014.85 1014.69 1014.56 1014.45 1014.32 1014.18 1014.04 1013.90 1013.81 1013.79 1013.88 1014.08 1014.38 1014.76
1012.48 1012.59 1012.64 1012.70 1012.83 1013.06 1013.40 1013.83 1014.31 1014.78 1015.17 1015.44 1015.58 1015.59 1015.51 1015.41 1015.34 1015.35 1015.46 1015.68 1015.97 1016.28 1016.54 1016.71 1016.74 1016.64 1016.42 1016.11 1015.77 1015.44 1015.14 1014.90 1014.71 1014.55 1014.42 1014.29 1014.17 1014.07 1014.02 1014.04 1014.15 1014.37 1014.67 1015.03
1012.38 1012.31 1012.26 1012.30 1012.49 1012.86 1013.39 1014.04 1014.74 1015.37 1015.87 1016.18 1016.28 1016.18 1015.96 1015.70 1015.48 1015.38 1015.45 1015.67 1016.01 1016.41 1016.79 1017.07 1017.21 1017.19 1017.00 1016.70 1016.32 1015.92 1015.56 1015.24 1015.00 1014.80 1014.66 1014.54 1014.44 1014.38 1014.36 1014.40 1014.53 1014.74 1015.02 1015.34
1012.44 1012.23 1012.10 1012.14 1012.40 1012.90 1013.61 1014.45 1015.31 1016.08 1016.65 1016.96 1016.99 1016.78 1016.41 1015.98 1015.62 1015.42 1015.42 1015.63 1016.02 1016.51 1017.01 1017.43 1017.69 1017.76 1017.64 1017.37 1016.98 1016.56 1016.14 1015.78 1015.48 1015.26 1015.09 1014.97 1014.89 1014.84 1014.83 1014.88 1014.99 1015.17 1015.40 1015.67
1012.69 1012.38 1012.21 1012.25 1012.58 1013.18 1014.02 1015.00 1015.97 1016.81 1017.40 1017.68 1017.63 1017.30 1016.79 1016.22 1015.74 1015.44 1015.39 1015.61 1016.05 1016.63 1017.25 1017.80 1018.19 1018.38 1018.35 1018.13 1017.77 1017.34 1016.90 1016.50 1016.17 1015.91 1015.72 1015.59 1015.50 1015.45 1015.43 1015.45 1015.52 1015.65 1015.82 1016.02
1013.12 1012.75 1012.56 1012.62 1012.99 1013.66 1014.56 1015.59 1016.59 1017.44 1018.00 1018.21 1018.07 1017.64 1017.01 1016.34 1015.78 1015.43 1015.37 1015.61 1016.11 1016.78 1017.52 1018.20 1018.72 1019.02 1019.10 1018.96 1018.65 1018.24 1017.80 1017.38 1017.02 1016.73 1016.52 1016.37 1016.26 1016.18 1016.14 1016.12 1016.13 1016.19 1016.28 1016.40
1013.66 1013.29 1013.10 1013.17 1013.55 1014.22 1015.11 1016.10 1017.06 1017.83 1018.31 1018.44 1018.22 1017.70 1017.02 1016.31 1015.72 1015.37 1015.34 1015.62 1016.19 1016.96 1017.80 1018.59 1019.23 1019.65 1019.82 1019.77 1019.52 1019.15 1018.73 1018.31 1017.94 1017.64 1017.41 1017.23 1017.10 1017.00 1016.92 1016.86 1016.81 1016.80 1016.81 1016.86
1014.24 1013.90 1013.72 1013.80 1014.15 1014.76 1015.56 1016.44 1017.26 1017.90 1018.27 1018.30 1018.01 1017.46 1016.78 1016.10 1015.55 1015.26 1015.30 1015.66 1016.30 1017.14 1018.06 1018.94 1019.67 1020.18 1020.45 1020.47 1020.30 1019.98 1019.59 1019.20 1018.84 1018.53 1018.29 1018.11 1017.97 1017.85 1017.74 1017.65 1017.56 1017.50 1017.45 1017.44
1014.78 1014.49 1014.35 1014.40 1014.69 1015.19 1015.83 1016.53 1017.17 1017.64 1017.87 1017.81 1017.48 1016.95 1016.33 1015.74 1015.31 1015.13 1015.26 1015.71 1016.43 1017.33 1018.30 1019.23 1020.01 1020.58 1020.91 1021.01 1020.90 1020.64 1020.31 1019.95 1019.61 1019.33 1019.10 1018.93 1018.79 1018.68 1018.58 1018.47 1018.37 1018.28 1018.20 1018.14
1015.24 1015.02 1014.90 1014.93 1015.12 1015.46 1015.91 1016.39 1016.81 1017.09 1017.18 1017.05 1016.72 1016.26 1015.76 1015.32 1015.04 1015.01 1015.27 1015.81 1016.58 1017.51 1018.50 1019.43 1020.23 1020.83 1021.20 1021.34 1021.30 1021.10 1020.82 1020.52 1020.22 1019.98 1019.78 1019.63 1019.53 1019.45 1019.38 1019.30 1019.22 1019.13 1019.05 1018.98
1015.59 1015.44 1015.34 1015.33 1015.41 1015.58 1015.81 1016.06 1016.25 1016.35 1016.32 1016.15 1015.86 1015.51 1015.17 1014.92 1014.84 1014.98 1015.36 1015.98 1016.79 1017.72 1018.68 1019.58 1020.36 1020.94 1021.33 1021.50 1021.50 1021.37 1021.15 1020.90 1020.66 1020.46 1020.31 1020.21 1020.16 1020.13 1020.11 1020.09 1020.06 1020.02 1019.97 1019.91
1015.86 1015.77 1015.68 1015.61 1015.57 1015.56 1015.58 1015.61 1015.60 1015.54 1015.42 1015.25 1015.04 1014.83 1014.67 1014.63 1014.75 1015.06 1015.56 1016.25 1017.07 1017.97 1018.87 1019.71 1020.42 1020.97 1021.34 1021.53 1021.57 1021.49 1021.33 1021.14 1020.96 1020.82 1020.72 1020.67 1020.67 1020.71 1020.76 1020.82 1020.87 1020.90 1020.90 1020.88
1016.07 1016.02 1015.92 1015.78 1015.63 1015.46 1015.29 1015.12 1014.95 1014.78 1014.61 1014.46 1014.35 1014.30 1014.35 1014.51 1014.82 1015.29 1015.89 1016.62 1017.42 1018.26 1019.08 1019.83 1020.47 1020.97 1021.31 1021.51 1021.58 1021.54 1021.44 1021.31 1021.18 1021.08 1021.03 1021.03 1021.08 1021.18 1021.31 1021.46 1021.59 1021.70 1021.78 1021.82
1016.27 1016.22 1016.09 1015.89 1015.62 1015.32 1014.99 1014.67 1014.38 1014.14 1013.97 1013.87 1013.88 1013.99 1014.22 1014.58 1015.06 1015.65 1016.33 1017.07 1017.84 1018.61 1019.34 1019.99 1020.55 1020.99 1021.31 1021.51 1021.60 1021.61 1021.56 1021.47 1021.38 1021.32 1021.30 1021.33 1021.43 1021.58 1021.77 1021.99 1022.21 1022.41 1022.57 1022.67
1016.49 1016.40 1016.22 1015.94 1015.58 1015.16 1014.73 1014.31 1013.95 1013.68 1013.53 1013.52 1013.64 1013.90 1014.30 1014.82 1015.42 1016.10 1016.82 1017.56 1018.29 1018.98 1019.62 1020.19 1020.67 1021.06 1021.36 1021.57 1021.69 1021.74 1021.72 1021.68 1021.62 1021.58 1021.57 1021.62 1021.73 1021.91 1022.14 1022.42 1022.70 1022.98 1023.21 1023.39
1016.73 1016.58 1016.31 1015.95 1015.51 1015.01 1014.51 1014.04 1013.66 1013.41 1013.31 1013.37 1013.61 1014.00 1014.53 1015.16 1015.86 1016.59 1017.33 1018.04 1018.72 1019.34 1019.91 1020.41 1020.84 1021.20 1021.49 1021.71 1021.86 1021.94 1021.97 1021.96 1021.92 1021.89 1021.88 1021.93 1022.04 1022.22 1022.47 1022.77 1023.10 1023.42 1023.72 1023.95
1016.98 1016.73 1016.37 1015.93 1015.42 1014.87 1014.34 1013.87 1013.50 1013.29 1013.26 1013.41 1013.74 1014.23 1014.85 1015.55 1016.30 1017.06 1017.79 1018.47 1019.10 1019.67 1020.17 1020.62 1021.02 1021.37 1021.67 1021.91 1022.10 1022.22 1022.29 1022.30 1022.28 1022.26 1022.24 1022.27 1022.37 1022.54 1022.78 1023.08 1023.43 1023.78 1024.11 1024.39
1017.21 1016.83 1016.38 1015.86 1015.30 1014.74 1014.21 1013.76 1013.45 1013.30 1013.34 1013.57 1013.98 1014.54 1015.21 1015.95 1016.72 1017.47 1018.18 1018.83 1019.41 1019.93 1020.40 1020.82 1021.21 1021.56 1021.88 1022.15 1022.38 1022.54 1022.65 1022.69 1022.69 1022.67 1022.66 1022.67 1022.74 1022.89 1023.11 1023.40 1023.74 1024.10 1024.44 1024.74
1017.35 1016.86 1016.31 1015.73 1015.15 1014.59 1014.10 1013.71 1013.47 1013.41 1013.52 1013.82 1014.29 1014.89 1015.59 1016.34 1017.10 1017.83 1018.50 1019.12 1019.66 1020.15 1020.59 1021.00 1021.38 1021.75 1022.09 1022.40 1022.66 1022.87 1023.02 1023.10 1023.13 1023.12 1023.11 1023.12 1023.18 1023.31 1023.50 1023.76 1024.08 1024.41 1024.74 1025.04
1017.38 1016.76 1016.14 1015.53 1014.94 1014.42 1013.99 1013.70 1013.55 1013.58 1013.78 1014.14 1014.65 1015.28 1015.98 1016.72 1017.45 1018.14 1018.78 1019.36 1019.87 1020.34 1020.76 1021.16 1021.55 1021.93 1022.30 1022.64 1022.94 1023.18 1023.37 1023.49 1023.56 1023.58 1023.60 1023.62 1023.67 1023.78 1023.96 1024.19 1024.47 1024.77 1025.06 1025.33
1017.23 1016.53 1015.86 1015.23 1014.68 1014.23 1013.89 1013.70 1013.67 1013.79 1014.08 1014.50 1015.05 1015.69 1016.38 1017.10 1017.79 1018.45 1019.05 1019.59 1020.08 1020.53 1020.94 1021.34 1021.73 1022.12 1022.50 1022.86 1023.18 1023.46 1023.68 1023.85 1023.96 1024.03 1024.08 1024.13 1024.20 1024.31 1024.47 1024.67 1024.91 1025.17 1025.42 1025.65
1016.89 1016.14 1015.45 1014.85 1014.36 1014.00 1013.78 1013.71 1013.80 1014.03 1014.40 1014.89 1015.47 1016.12 1016.80 1017.48 1018.15 1018.77 1019.34 1019.85 1020.32 1020.75 1021.15 1021.54 1021.93 1022.32 1022.70 1023.06 1023.40 1023.70 1023.96 1024.16 1024.32 1024.44 1024.54 1024.62 1024.73 1024.85 1025.00 1025.18 1025.38 1025.59 1025.79 1025.97
1016.36 1015.59 1014.92 1014.38 1013.99 1013.74 1013.66 1013.72 1013.94 1014.28 1014.74 1015.28 1015.90 1016.55 1017.22 1017.88 1018.51 1019.10 1019.65 1020.14 1020.59 1021.01 1021.40 1021.78 1022.16 1022.54 1022.90 1023.26 1023.60 1023.91 1024.18 1024.42 1024.62 1024.78 1024.93 1025.06 1025.20 1025.34 1025.50 1025.66 1025.83 1025.99 1026.15 1026.28
Thickness
5691 5681 5675 5681 5685 5689 5689 5686 5682 5689 5700 5693 5688 5686 5689 5693 5693 5690 5689 5688 5687 5686 5687 5688 5689 5690 5690 5690 5690 5690 5689 5689 5689 5689 5688 5687 5686 5686 5686 5686 5687 5687 5689 5689
5677 5675 5687 5693 5691 5689 5686 5683 5682 5687 5697 5690 5681 5679 5683 5685 5685 5684 5682 5680 5679 5678 5679 5679 5679 5680 5680 5680 5680 5681 5681 5680 5681 5682 5681 5681 5679 5678 5679 5680 5680 5681 5682 5682
5676 5683 5697 5694 5691 5688 5686 5683 5685 5684 5687 5685 5679 5670 5674 5677 5679 5678 5676 5674 5673 5672 5670 5669 5670 5669 5670 5670 5671 5672 5671 5672 5672 5673 5673 5673 5671 5671 5671 5671 5671 5672 5673 5674
5680 5690 5695 5693 5692 5691 5684 5697 5694 5688 5675 5664 5671 5653 5665 5668 5669 5669 5668 5666 5665 5664 5663 5661 5661 5660 5660 5660 5662 5663 5662 5662 5663 5664 5665 5664 5663 5662 5661 5661 5661 5663 5664 5666
5681 5693 5693 5691 5698 5699 5694 5700 5692 5685 5671 5660 5660 5650 5654 5662 5662 5663 5662 5659 5657 5656 5654 5652 5651 5650 5650 5650 5651 5651 5652 5653 5653 5655 5656 5656 5655 5653 5652 5652 5653 5654 5654 5656
5686 5698 5700 5700 5706 5705 5699 5689 5678 5666 5658 5649 5655 5649 5649 5654 5659 5659 5657 5654 5650 5648 5645 5643 5641 5641 5641 5641 5641 5642 5642 5642 5642 5644 5645 5645 5644 5643 5642 5641 5642 5642 5644 5646
5678 5690 5701 5706 5698 5697 5691 5670 5651 5649 5638 5641 5652 5647 5648 5659 5662 5659 5654 5648 5644 5640 5636 5633 5631 5630 5631 5631 5631 5631 5631 5631 5631 5632 5633 5633 5632 5632 5630 5631 5631 5631 5633 5634
5663 5666 5691 5700 5696 5688 5683 5673 5649 5640 5636 5637 5645 5642 5651 5659 5658 5656 5649 5642 5636 5631 5628 5624 5622 5620 5620 5620 5619 5620 5620 5620 5620 5621 5620 5620 5620 5620 5619 5620 5620 5620 5620 5622
5662 5666 5691 5698 5700 5693 5678 5667 5666 5645 5639 5632 5635 5645 5653 5654 5649 5645 5640 5635 5629 5624 5620 5616 5613 5611 5609 5608 5608 5609 5609 5609 5609 5609 5608 5608 5607 5607 5607 5608 5608 5608 5609 5611
5671 5666 5681 5691 5695 5687 5682 5665 5651 5640 5629 5627 5636 5639 5642 5649 5646 5642 5636 5630 5624 5618 5613 5608 5604 5602 5599 5598 5597 5598 5598 5597 5596 5596 5596 5596 5595 5594 5595 5596 5596 5597 5598 5599
5672 5662 5669 5676 5674 5673 5672 5663 5648 5635 5634 5624 5622 5634 5656 5654 5650 5642 5634 5627 5619 5613 5606 5601 5597 5593 5590 5589 5588 5587 5586 5585 5585 5584 5584 5584 5583 5582 5582 5583 5583 5585 5586 5588
5664 5654 5652 5664 5674 5677 5672 5665 5650 5640 5635 5627 5622 5632 5657 5653 5648 5640 5630 5622 5614 5606 5599 5594 5589 5585 5582 5580 5578 5576 5575 5574 5573 5572 5571 5571 5570 5570 5570 5570 5571 5573 5574 5576
5661 5649 5640 5646 5654 5665 5664 5661 5653 5641 5631 5621 5620 5635 5650 5646 5640 5634 5625 5616 5608 5599 5592 5586 5581 5577 5573 5571 5568 5566 5564 5563 5561 5560 5559 5558 5558 5558 5558 5559 5560 5561 5562 5563
5660 5644 5640 5639 5644 5654 5656 5658 5651 5642 5629 5625 5631 5640 5645 5639 5633 5626 5619 5610 5602 5594 5587 5580 5574 5568 5565 5562 5559 5556 5554 5553 5551 5549 5549 5547 5546 5547 5547 5548 5548 5549 5550 5551
5650 5642 5646 5648 5654 5655 5655 5657 5654 5647 5643 5636 5642 5642 5645 5640 5632 5624 5614 5605 5596 5588 5581 5573 5566 5560 5556 5553 5550 5547 5545 5543 5542 5540 5539 5537 5536 5537 5537 5537 5537 5538 5539 5540
5638 5637 5641 5644 5653 5653 5652 5657 5656 5653 5650 5644 5644 5641 5642 5636 5627 5618 5609 5601 5592 5583 5575 5567 5560 5554 5549 5545 5541 5539 5537 5535 5533 5531 5530 5528 5528 5528 5528 5528 5528 5528 5528 5529
5628 5629 5628 5629 5640 5647 5643 5654 5655 5654 5653 5647 5641 5641 5634 5628 5622 5614 5605 5597 5588 5579 5570 5561 5554 5547 5542 5537 5534 5531 5529 5527 5525 5524 5523 5522 5521 5520 5520 5520 5519 5518 5518 5519
5624 5621 5616 5618 5629 5629 5644 5658 5658 5652 5649 5648 5643 5637 5631 5625 5616 5608 5600 5592 5582 5573 5564 5554 5547 5540 5535 5531 5527 5525 5522 5520 5519 5517 5516 5515 5514 5513 5512 5511 5510 5509 5509 5509
5624 5620 5614 5611 5617 5627 5645 5652 5651 5646 5644 5642 5637 5630 5621 5614 5607 5597 5591 5585 5576 5567 5557 5548 5541 5535 5529 5525 5522 5519 5516 5515 5513 5511 5510 5509 5507 5506 5504 5503 5502 5501 5501 5501
5620 5618 5613 5610 5616 5619 5637 5651 5654 5647 5638 5638 5633 5625 5617 5611 5603 5594 5584 5576 5567 5558 5550 5542 5535 5530 5524 5520 5517 5515 5512 5510 5508 5506 5505 5503 5502 5500 5498 5497 5496 5495 5495 5494
5610 5610 5609 5608 5611 5622 5641 5649 5650 5633 5633 5636 5630 5623 5615 5607 5601 5590 5579 5569 5560 5551 5544 5537 5531 5525 5520 5516 5513 5510 5507 5505 5503 5502 5500 5498 5497 5495 5493 5492 5491 5490 5489 5488
5606 5606 5606 5606 5608 5618 5640 5642 5636 5634 5636 5632 5625 5617 5608 5599 5592 5583 5573 5563 5554 5546 5538 5532 5526 5520 5515 5512 5509 5505 5503 5501 5500 5498 5496 5494 5492 5491 5489 5488 5486 5486 5485 5484
5605 5608 5609 5611 5617 5629 5633 5634 5635 5633 5630 5626 5619 5611 5604 5595 5586 5577 5566 5557 5549 5542 5534 5528 5522 5516 5511 5509 5506 5503 5500 5498 5496 5494 5491 5490 5488 5487 5485 5484 5483 5481 5480 5479
5607 5611 5610 5613 5623 5629 5631 5630 5631 5631 5627 5623 5616 5608 5601 5592 5582 5572 5562 5553 5545 5537 5531 5525 5520 5514 5509 5506 5504 5501 5499 5497 5494 5491 5488 5486 5485 5483 5481 5481 5480 5479 5478 5477
5605 5609 5608 5612 5620 5625 5628 5626 5625 5624 5621 5616 5609 5602 5597 5589 5578 5568 5559 5550 5542 5535 5529 5523 5518 5513 5509 5506 5503 5500 5498 5495 5492 5489 5486 5484 5482 5480 5479 5478 5477 5478 5477 5477
5605 5608 5609 5613 5620 5620 5621 5621 5620 5618 5614 5610 5604 5596 5590 5585 5575 5565 5556 5547 5540 5533 5527 5522 5517 5513 5509 5506 5503 5500 5498 5495 5492 5489 5486 5483 5481 5480 5479 5478 5477 5477 5477 5478